This is the latest recevied weather packets stored in our database for station/object DC4AT. If no packets are shown the sender has not sent any weather packets the latest 10 day(s).
| Time | Temp. | Humidity | Pressure | Rain* | Wind** | Luminosity | Snow |
|---|---|---|---|---|---|---|---|
| 1777672425 | 13.33° C | 64% | 1024.5 hPa | 0 mm | - | 0 W/m² | - |
| 1777671825 | 13.33° C | 63% | 1024.4 hPa | 0 mm | - | 0 W/m² | - |
| 1777671225 | 13.89° C | 62% | 1024.5 hPa | 0 mm | - | 0 W/m² | - |
| 1777670625 | 13.89° C | 61% | 1024.5 hPa | 0 mm | - | 0 W/m² | - |
| 1777670025 | 13.89° C | 61% | 1024.5 hPa | 0 mm | - | 0 W/m² | - |
| 1777669425 | 14.44° C | 60% | 1024.6 hPa | 0 mm | - | 0 W/m² | - |
| 1777668825 | 14.44° C | 59% | 1024.6 hPa | 0 mm | - | 0 W/m² | - |
| 1777668225 | 15° C | 58% | 1024.6 hPa | 0 mm | - | 0 W/m² | - |
| 1777667625 | 15° C | 57% | 1024.6 hPa | 0 mm | - | 0 W/m² | - |
| 1777667025 | 15.56° C | 56% | 1024.7 hPa | 0 mm | - | 0 W/m² | - |
| 1777666425 | 15.56° C | 56% | 1024.7 hPa | 0 mm | - | 0 W/m² | - |
| 1777665825 | 15.56° C | 56% | 1024.7 hPa | 0 mm | - | 0 W/m² | - |
| 1777665225 | 15.56° C | 55% | 1024.7 hPa | 0 mm | - | 0 W/m² | - |
| 1777664625 | 16.11° C | 54% | 1024.7 hPa | 0 mm | - | 0 W/m² | - |
| 1777664025 | 16.11° C | 54% | 1024.8 hPa | 0 mm | - | 0 W/m² | - |
| 1777663425 | 16.11° C | 54% | 1024.8 hPa | 0 mm | - | 0 W/m² | - |
| 1777662826 | 16.11° C | 54% | 1024.8 hPa | 0 mm | - | 0 W/m² | - |
| 1777662225 | 16.67° C | 54% | 1024.9 hPa | 0 mm | - | 0 W/m² | - |
| 1777661626 | 16.67° C | 53% | 1024.8 hPa | 0 mm | - | 0 W/m² | - |
| 1777661025 | 17.22° C | 53% | 1024.7 hPa | 0 mm | - | 5 W/m² | - |
| 1777660425 | 17.78° C | 53% | 1024.7 hPa | 0 mm | - | 9 W/m² | - |
| 1777659825 | 18.33° C | 52% | 1024.7 hPa | 0 mm | - | 21 W/m² | - |
| 1777659226 | 18.89° C | 51% | 1024.8 hPa | 0 mm | - | 33 W/m² | - |
| 1777658626 | 18.89° C | 49% | 1024.8 hPa | 0 mm | - | 53 W/m² | - |
| 1777658026 | 19.44° C | 49% | 1024.7 hPa | 0 mm | - | 76 W/m² | - |
* Rain latest hour (hover to see other rain measurements)
** Current wind speed in m/s (hover to see current wind gust speed)